Weather History for KFHU - February, 2015

Change the Weather History Date:

Wednesday, February 11, 2015

  Actual Average Record
Temperature  
Mean Temperature 55 °F -  
Max Temperature 66 °F 60 °F - (-1)
Min Temperature 44 °F 38 °F - (-1)
Degree Days  
Heating Degree Days 10    
Growing Degree Days 5 (Base 50)    
Moisture  
Dew Point 28 °F    
Average Humidity 38    
Maximum Humidity 62    
Minimum Humidity 18    
Precipitation  
Precipitation 0.00 in - - ()
Sea Level Pressure  
Sea Level Pressure 30.01 in    
Wind  
Wind Speed 9 mph (NNE)    
Max Wind Speed 17 mph    
Max Gust Speed 24 mph    
Visibility 10 miles    
Events      
Averages and records for this station are not official NWS values.
T = Trace of Precipitation, MM = Missing Value Source: NWS Daily Summary

Daily Weather History Graph

Daily Weather History Graph

Search for Another Location

Airport or City:

Trip Planner

Search our weather history database for the weather conditions in past years. The results will help you decide how hot, cold, wet, or windy it might be!

Date:

Astronomy

Feb. 11, 2015 Rise Set
Actual Time 7:06 AM MST 6:04 PM MST
Civil Twilight 6:41 AM MST 6:29 PM MST
Nautical Twilight 6:13 AM MST 6:58 PM MST
Astronomical Twilight 5:44 AM MST 7:26 PM MST
Moon 12:12 AM MST (2/11) 11:24 AM MST (2/11)
Length of Visible Light 11h 48m
Length of Day
10h 57m
Waning Gibbous, 54% of the Moon is Illuminated
Feb 11
Waning Gibbous
Feb 11
Last Quarter
Feb 18
New
Feb 25
First Quarter
Mar 5
Full

Hourly Weather History & Observations

Time (MST) Temp. Windchill Dew Point Humidity Pressure Visibility Wind Dir Wind Speed Gust Speed Precip Events Conditions
12:55 AM 51.8 °F - 26.6 °F 38% 29.94 in 10.0 mi West 11.5 mph - N/A   Clear
1:55 AM 51.8 °F - 28.4 °F 41% 29.94 in 10.0 mi West 10.4 mph - N/A   Clear
2:55 AM 50.0 °F - 30.2 °F 47% 29.94 in 10.0 mi West 10.4 mph - N/A   Clear
3:55 AM 48.2 °F - 32.0 °F 54% 29.93 in 10.0 mi WSW 10.4 mph - N/A   Clear
4:55 AM 48.2 °F - 32.0 °F 54% 29.94 in 10.0 mi WSW 9.2 mph - N/A   Clear
5:55 AM 44.6 °F - 30.2 °F 57% 29.97 in 10.0 mi Calm Calm - N/A   Clear
6:55 AM 44.6 °F 42.2 °F 28.4 °F 53% 30.00 in 10.0 mi SSW 4.6 mph - N/A   Partly Cloudy
7:55 AM 50.0 °F - 30.2 °F 47% 30.02 in 10.0 mi South 3.5 mph - N/A   Partly Cloudy
8:55 AM 60.8 °F - 32.0 °F 34% 30.00 in 10.0 mi Calm Calm - N/A   Scattered Clouds
9:55 AM 60.8 °F - 32.0 °F 34% 30.01 in 10.0 mi NE 6.9 mph - N/A   Mostly Cloudy
10:55 AM 62.6 °F - 28.4 °F 27% 30.01 in 10.0 mi Variable 3.5 mph - N/A   Scattered Clouds
11:55 AM 64.4 °F - 28.4 °F 26% 30.01 in 10.0 mi Variable 6.9 mph - N/A   Partly Cloudy
12:55 PM 64.4 °F - 24.8 °F 22% 29.98 in 10.0 mi NE 6.9 mph - N/A   Scattered Clouds
1:55 PM 66.2 °F - 28.4 °F 24% 29.96 in 10.0 mi North 17.3 mph - N/A   Scattered Clouds
2:55 PM 66.2 °F - 26.6 °F 23% 29.96 in 10.0 mi Variable 4.6 mph - N/A   Partly Cloudy
3:55 PM 64.4 °F - 23.0 °F 21% 29.97 in 10.0 mi NNW 4.6 mph - N/A   Partly Cloudy
4:55 PM 64.4 °F - 19.4 °F 18% 29.99 in 10.0 mi North 12.7 mph 20.7 mph N/A   Partly Cloudy
5:55 PM 60.8 °F - 21.2 °F 22% 30.03 in 10.0 mi North 9.2 mph - N/A   Partly Cloudy
6:55 PM 57.2 °F - 19.4 °F 23% 30.06 in 10.0 mi North 8.1 mph - N/A   Partly Cloudy
7:55 PM 55.4 °F - 24.8 °F 31% 30.08 in 10.0 mi ENE 16.1 mph 24.2 mph N/A   Partly Cloudy
8:55 PM 51.8 °F - 33.8 °F 50% 30.10 in 10.0 mi East 12.7 mph - N/A   Clear
9:55 PM 51.8 °F - 33.8 °F 50% 30.11 in 10.0 mi East 16.1 mph 24.2 mph N/A   Clear
10:55 PM 50.0 °F - 33.8 °F 54% 30.14 in 10.0 mi East 9.2 mph - N/A   Clear
11:55 PM 46.4 °F 41.5 °F 33.8 °F 62% 30.14 in 10.0 mi East 10.4 mph - N/A   Clear